| time (UTC) | temp C | wind direction | speed KPH | gust KPH | rain 1hr cm | rain 24hr cm | rain mn cm | humidity % | barometer mb |
| 20260507140342 | 13 | 293 | 3.2 | 3.2 | 0.00 | 0.00 | 0.00 | 80 | 1016.5 |
| 20260507135143 | 13 | 225 | 0.0 | 1.6 | 0.00 | 0.00 | 0.00 | 81 | 1016.5 |
| 20260507134519 | 13 | 0 | 3.2 | 3.2 | 0.00 | 0.00 | 0.00 | 80 | 1016.5 |
| 20260507133319 | 13 | 0 | 1.6 | 3.2 | 0.00 | 0.00 | 0.00 | 88 | 1016.9 |
| 20260507132742 | 13 | 23 | 0.0 | 0.0 | 0.00 | 0.00 | 0.00 | 94 | 1016.9 |
| 20260507132122 | 13 | 225 | 0.0 | 0.0 | 0.00 | 0.00 | 0.00 | 94 | 1016.9 |
| 20260507130911 | 12 | 113 | 0.0 | 0.0 | 0.00 | 0.00 | 0.00 | 97 | 1016.9 |
| 20260507130311 | 12 | 203 | 0.0 | 0.0 | 0.00 | 0.00 | 0.00 | 97 | 1016.5 |
| 20260507124550 | 12 | 293 | 0.0 | 0.0 | 0.00 | 0.00 | 0.00 | 99 | 1016.9 |
| 20260507123943 | 11 | 270 | 0.0 | 0.0 | 0.00 | 0.00 | 0.00 | 99 | 1016.5 |
| 20260507123343 | 11 | 0 | 0.0 | 0.0 | 0.00 | 0.00 | 0.00 | 99 | 1016.5 |
| 20260507122748 | 11 | 225 | 0.0 | 0.0 | 0.00 | 0.00 | 0.00 | 99 | 1016.5 |
| 20260507122127 | 11 | 225 | 0.0 | 0.0 | 0.00 | 0.00 | 0.00 | 99 | 1016.5 |
| 20260507120340 | 11 | 180 | 0.0 | 0.0 | 0.00 | 0.00 | 0.00 | 99 | 1016.9 |
| 20260507115712 | 10 | 0 | 0.0 | 0.0 | 0.00 | 0.00 | 0.00 | 99 | 1016.9 |
| 20260507115146 | 10 | 270 | 0.0 | 0.0 | 0.00 | 0.00 | 0.00 | 99 | 1016.9 |
| 20260507114527 | 10 | 180 | 0.0 | 0.0 | 0.00 | 0.00 | 0.00 | 99 | 1016.5 |
| 20260507113916 | 10 | 203 | 0.0 | 0.0 | 0.00 | 0.00 | 0.00 | 99 | 1016.9 |
| 20260507113326 | 10 | 270 | 0.0 | 0.0 | 0.00 | 0.00 | 0.00 | 99 | 1016.9 |
| 20260507112752 | 10 | 225 | 0.0 | 0.0 | 0.00 | 0.00 | 0.00 | 99 | 1016.9 |
| 20260507111513 | 10 | 270 | 0.0 | 0.0 | 0.00 | 0.00 | 0.00 | 99 | 1016.5 |
| 20260507110940 | 10 | 270 | 0.0 | 0.0 | 0.00 | 0.00 | 0.00 | 99 | 1016.2 |
| 20260507110320 | 10 | 338 | 0.0 | 0.0 | 0.00 | 0.00 | 0.00 | 99 | 1016.2 |
| 20260507105717 | 10 | 45 | 0.0 | 0.0 | 0.00 | 0.00 | 0.00 | 99 | 1016.2 |
| 20260507105143 | 10 | 23 | 0.0 | 0.0 | 0.00 | 0.00 | 0.00 | 99 | 1016.2 |
| 20260507104546 | 10 | 23 | 0.0 | 0.0 | 0.00 | 0.00 | 0.00 | 99 | 1016.2 |
| 20260507103320 | 10 | 45 | 0.0 | 0.0 | 0.00 | 0.00 | 0.00 | 99 | 1016.2 |
| 20260507102729 | 10 | 338 | 0.0 | 0.0 | 0.00 | 0.00 | 0.00 | 99 | 1016.2 |
| 20260507101525 | 10 | 270 | 0.0 | 0.0 | 0.00 | 0.00 | 0.00 | 99 | 1015.5 |
| 20260507100912 | 10 | 180 | 0.0 | 0.0 | 0.00 | 0.00 | 0.00 | 99 | 1015.5 |
| 20260507100332 | 10 | 270 | 0.0 | 0.0 | 0.00 | 0.00 | 0.00 | 99 | 1015.5 |
| 20260507095740 | 10 | 270 | 0.0 | 0.0 | 0.00 | 0.00 | 0.00 | 99 | 1015.5 |
| 20260507095110 | 10 | 338 | 0.0 | 0.0 | 0.00 | 0.00 | 0.00 | 99 | 1015.5 |
| 20260507093930 | 10 | 225 | 0.0 | 0.0 | 0.00 | 0.00 | 0.00 | 99 | 1015.9 |
| 20260507093344 | 10 | 270 | 0.0 | 0.0 | 0.00 | 0.00 | 0.00 | 99 | 1015.9 |
| 20260507092744 | 10 | 270 | 0.0 | 0.0 | 0.00 | 0.00 | 0.00 | 99 | 1016.2 |
| 20260507092130 | 10 | 270 | 0.0 | 0.0 | 0.00 | 0.00 | 0.00 | 99 | 1016.2 |
| 20260507091510 | 10 | 338 | 0.0 | 0.0 | 0.00 | 0.00 | 0.00 | 99 | 1015.9 |
| 20260507090939 | 10 | 0 | 0.0 | 0.0 | 0.00 | 0.00 | 0.00 | 99 | 1016.2 |
| 20260507090318 | 10 | 45 | 0.0 | 0.0 | 0.00 | 0.00 | 0.00 | 99 | 1016.2 |
| 20260507085715 | 10 | 315 | 0.0 | 0.0 | 0.00 | 0.00 | 0.00 | 99 | 1015.9 |
| 20260507085109 | 10 | 338 | 0.0 | 0.0 | 0.00 | 0.00 | 0.00 | 99 | 1015.9 |
| 20260507084541 | 10 | 23 | 0.0 | 0.0 | 0.00 | 0.00 | 0.00 | 99 | 1015.9 |
| 20260507083925 | 10 | 225 | 0.0 | 0.0 | 0.00 | 0.00 | 0.00 | 99 | 1015.5 |
| 20260507083327 | 10 | 23 | 0.0 | 0.0 | 0.00 | 0.00 | 0.00 | 99 | 1015.5 |
| 20260507082121 | 11 | 203 | 0.0 | 0.0 | 0.00 | 0.00 | 0.00 | 99 | 1015.9 |
| 20260507081530 | 11 | 225 | 0.0 | 0.0 | 0.00 | 0.00 | 0.00 | 99 | 1015.9 |
| 20260507080917 | 11 | 248 | 0.0 | 0.0 | 0.00 | 0.00 | 0.00 | 99 | 1015.9 |
| 20260507080337 | 11 | 203 | 0.0 | 0.0 | 0.00 | 0.00 | 0.00 | 99 | 1015.9 |
| 20260507075716 | 11 | 180 | 0.0 | 0.0 | 0.00 | 0.00 | 0.00 | 99 | 1015.9 |
| 20260507075135 | 11 | 23 | 0.0 | 0.0 | 0.00 | 0.00 | 0.00 | 99 | 1016.2 |
| 20260507074541 | 11 | 0 | 0.0 | 0.0 | 0.00 | 0.00 | 0.00 | 99 | 1015.9 |
| 20260507073952 | 11 | 315 | 0.0 | 0.0 | 0.00 | 0.00 | 0.00 | 99 | 1015.9 |
| 20260507073328 | 11 | 0 | 0.0 | 0.0 | 0.00 | 0.00 | 0.00 | 99 | 1015.9 |
| 20260507072748 | 11 | 270 | 0.0 | 0.0 | 0.00 | 0.00 | 0.00 | 99 | 1015.9 |
| 20260507072116 | 11 | 23 | 3.2 | 3.2 | 0.00 | 0.00 | 0.00 | 99 | 1015.9 |
| 20260507071537 | 11 | 203 | 0.0 | 0.0 | 0.00 | 0.00 | 0.00 | 99 | 1015.5 |
| 20260507070310 | 11 | 293 | 0.0 | 0.0 | 0.00 | 0.00 | 0.00 | 99 | 1015.9 |
| 20260507065753 | 11 | 270 | 0.0 | 0.0 | 0.00 | 0.00 | 0.00 | 99 | 1015.9 |
| 20260507064514 | 11 | 180 | 0.0 | 0.0 | 0.00 | 0.00 | 0.00 | 99 | 1015.9 |
| 20260507063913 | 11 | 203 | 0.0 | 0.0 | 0.00 | 0.00 | 0.00 | 99 | 1015.9 |
| 20260507063347 | 11 | 203 | 0.0 | 0.0 | 0.00 | 0.00 | 0.00 | 99 | 1015.9 |
| 20260507062716 | 11 | 203 | 0.0 | 0.0 | 0.00 | 0.00 | 0.00 | 99 | 1015.9 |
| 20260507062130 | 11 | 180 | 0.0 | 0.0 | 0.00 | 0.00 | 0.00 | 99 | 1015.9 |
| 20260507061517 | 11 | 0 | 3.2 | 3.2 | 0.00 | 0.00 | 0.00 | 99 | 1016.2 |
| 20260507060928 | 11 | 23 | 0.0 | 0.0 | 0.00 | 0.00 | 0.00 | 99 | 1016.2 |
| 20260507060317 | 11 | 45 | 0.0 | 0.0 | 0.00 | 0.00 | 0.00 | 99 | 1016.2 |
| 20260507055734 | 11 | 338 | 0.0 | 3.2 | 0.00 | 0.00 | 0.00 | 99 | 1016.2 |
| 20260507055110 | 11 | 338 | 0.0 | 0.0 | 0.00 | 0.00 | 0.00 | 99 | 1015.9 |
| 20260507053926 | 11 | 0 | 4.8 | 4.8 | 0.00 | 0.00 | 0.00 | 99 | 1016.2 |
| 20260507052712 | 12 | 23 | 0.0 | 0.0 | 0.00 | 0.00 | 0.00 | 99 | 1016.2 |
| 20260507052147 | 12 | 23 | 3.2 | 3.2 | 0.00 | 0.00 | 0.00 | 99 | 1016.2 |
| 20260507051524 | 12 | 0 | 0.0 | 1.6 | 0.00 | 0.00 | 0.00 | 99 | 1016.2 |
| 20260507050911 | 12 | 293 | 0.0 | 3.2 | 0.00 | 0.00 | 0.00 | 99 | 1016.2 |
| 20260507050342 | 12 | 293 | 0.0 | 0.0 | 0.00 | 0.00 | 0.00 | 99 | 1016.2 |
| 20260507045750 | 12 | 23 | 0.0 | 0.0 | 0.00 | 0.00 | 0.00 | 99 | 1016.2 |
| 20260507045142 | 12 | 315 | 0.0 | 0.0 | 0.00 | 0.00 | 0.00 | 99 | 1016.2 |
| 20260507044539 | 12 | 293 | 0.0 | 0.0 | 0.00 | 0.00 | 0.00 | 99 | 1016.2 |
| 20260507043954 | 12 | 23 | 0.0 | 0.0 | 0.00 | 0.00 | 0.00 | 99 | 1016.2 |
| 20260507041541 | 12 | 270 | 0.0 | 0.0 | 0.00 | 0.00 | 0.00 | 99 | 1016.2 |
| 20260507040932 | 12 | 270 | 0.0 | 0.0 | 0.00 | 0.00 | 0.00 | 99 | 1016.2 |
| 20260507040332 | 12 | 0 | 0.0 | 0.0 | 0.00 | 0.00 | 0.00 | 99 | 1015.9 |
| 20260507035713 | 12 | 45 | 0.0 | 0.0 | 0.00 | 0.00 | 1.78 | 99 | 1016.2 |
| 20260507035145 | 12 | 270 | 0.0 | 0.0 | 0.00 | 0.00 | 1.78 | 99 | 1016.2 |
| 20260507034518 | 12 | 225 | 0.0 | 0.0 | 0.00 | 0.00 | 1.78 | 99 | 1015.9 |
| 20260507033911 | 12 | 225 | 0.0 | 0.0 | 0.00 | 0.00 | 1.78 | 99 | 1015.9 |
| 20260507033343 | 12 | 225 | 0.0 | 0.0 | 0.00 | 0.00 | 1.78 | 99 | 1015.9 |
| 20260507032121 | 12 | 270 | 0.0 | 0.0 | 0.00 | 0.00 | 1.78 | 99 | 1015.5 |
| 20260507030950 | 12 | 203 | 0.0 | 0.0 | 0.00 | 0.00 | 1.78 | 99 | 1015.5 |
| 20260507030351 | 12 | 248 | 0.0 | 0.0 | 0.00 | 0.00 | 1.78 | 99 | 1015.9 |
| 20260507025726 | 12 | 248 | 0.0 | 0.0 | 0.00 | 0.00 | 1.78 | 99 | 1015.9 |
| 20260507024540 | 12 | 0 | 0.0 | 0.0 | 0.00 | 0.00 | 1.78 | 99 | 1016.2 |
| 20260507023911 | 12 | 45 | 0.0 | 0.0 | 0.00 | 0.00 | 1.78 | 99 | 1016.2 |
| 20260507023354 | 12 | 23 | 3.2 | 3.2 | 0.00 | 0.00 | 1.78 | 99 | 1016.2 |
| 20260507022710 | 12 | 158 | 0.0 | 1.6 | 0.00 | 0.00 | 1.78 | 99 | 1015.5 |
| 20260507022117 | 12 | 338 | 0.0 | 0.0 | 0.00 | 0.00 | 1.78 | 99 | 1016.2 |
| 20260507021541 | 12 | 225 | 0.0 | 3.2 | 0.00 | 0.00 | 1.78 | 99 | 1015.9 |
| 20260507020939 | 12 | 225 | 0.0 | 1.6 | 0.00 | 0.00 | 1.75 | 99 | 1016.9 |
| 20260507020318 | 12 | 338 | 0.0 | 4.8 | 0.00 | 0.00 | 1.75 | 99 | 1017.2 |
| 20260507015728 | 12 | 68 | 3.2 | 3.2 | 0.00 | 0.00 | 1.75 | 99 | 1016.9 |
| 20260507015145 | 12 | 180 | 0.0 | 0.0 | 0.00 | 0.00 | 1.75 | 99 | 1015.5 |
| 20260507014513 | 12 | 180 | 0.0 | 1.6 | 0.00 | 0.00 | 1.75 | 99 | 1015.9 |
| 20260507013930 | 12 | 248 | 0.0 | 0.0 | 0.00 | 0.00 | 1.75 | 99 | 1016.2 |
| 20260507013354 | 12 | 0 | 1.6 | 3.2 | 0.00 | 0.00 | 1.75 | 99 | 1016.2 |
| 20260507012144 | 12 | 270 | 0.0 | 0.0 | 0.00 | 0.00 | 1.75 | 99 | 1014.5 |
| 20260507011532 | 12 | 180 | 1.6 | 3.2 | 0.00 | 0.00 | 1.75 | 99 | 1014.9 |
| 20260507010953 | 12 | 180 | 0.0 | 1.6 | 0.00 | 0.00 | 1.75 | 99 | 1015.2 |
| 20260507010329 | 12 | 45 | 0.0 | 1.6 | 0.00 | 0.00 | 1.75 | 99 | 1015.2 |
| 20260507005135 | 12 | 23 | 0.0 | 0.0 | 0.00 | 0.00 | 1.75 | 99 | 1015.5 |
| 20260507004543 | 12 | 0 | 3.2 | 4.8 | 0.00 | 0.00 | 1.75 | 99 | 1015.5 |
| 20260507003344 | 12 | 203 | 0.0 | 0.0 | 0.00 | 0.00 | 1.75 | 99 | 1013.8 |
| 20260507002728 | 12 | 180 | 1.6 | 1.6 | 0.00 | 0.00 | 1.75 | 99 | 1014.2 |
| 20260507001548 | 13 | 203 | 0.0 | 0.0 | 0.00 | 0.00 | 1.75 | 99 | 1014.9 |
| 20260507000314 | 13 | 338 | 0.0 | 0.0 | 0.00 | 0.00 | 1.75 | 99 | 1015.2 |
| 20260506235728 | 13 | 338 | 0.0 | 0.0 | 0.00 | 0.00 | 1.75 | 99 | 1015.2 |
| 20260506235133 | 13 | 23 | 3.2 | 3.2 | 0.00 | 0.00 | 1.75 | 99 | 1014.9 |
| 20260506234523 | 13 | 248 | 3.2 | 3.2 | 0.00 | 0.00 | 1.75 | 99 | 1014.5 |
| 20260506233939 | 13 | 0 | 0.0 | 0.0 | 0.00 | 0.00 | 1.75 | 99 | 1014.5 |
| 20260506233351 | 13 | 293 | 0.0 | 0.0 | 0.00 | 0.00 | 1.75 | 99 | 1014.5 |
| 20260506232743 | 13 | 180 | 0.0 | 0.0 | 0.00 | 0.00 | 1.75 | 99 | 1014.5 |
| 20260506232149 | 13 | 248 | 0.0 | 0.0 | 0.00 | 0.00 | 1.75 | 99 | 1014.9 |
| 20260506231525 | 13 | 203 | 0.0 | 0.0 | 0.00 | 0.00 | 1.75 | 99 | 1014.5 |
| 20260506230932 | 13 | 270 | 0.0 | 0.0 | 0.00 | 0.00 | 1.75 | 99 | 1014.9 |
| 20260506230329 | 13 | 0 | 0.0 | 0.0 | 0.00 | 0.00 | 1.73 | 99 | 1015.2 |
| 20260506225711 | 13 | 248 | 0.0 | 0.0 | 0.00 | 0.00 | 1.73 | 99 | 1015.2 |
| 20260506225110 | 13 | 0 | 0.0 | 1.6 | 0.00 | 0.00 | 1.73 | 99 | 1014.9 |
| 20260506224517 | 13 | 338 | 1.6 | 3.2 | 0.00 | 0.00 | 1.63 | 99 | 1014.9 |
| 20260506223932 | 13 | 23 | 0.0 | 1.6 | 0.00 | 0.00 | 1.63 | 99 | 1015.2 |
| 20260506223327 | 13 | 45 | 1.6 | 3.2 | 0.00 | 0.00 | 1.63 | 99 | 1014.9 |
| 20260506222722 | 13 | 180 | 0.0 | 0.0 | 0.00 | 0.00 | 1.60 | 99 | 1014.9 |
| 20260506222144 | 13 | 338 | 0.0 | 3.2 | 0.00 | 0.00 | 1.57 | 99 | 1014.5 |
| 20260506221515 | 13 | 23 | 0.0 | 3.2 | 0.00 | 0.00 | 1.57 | 99 | 1014.2 |
| 20260506220917 | 13 | 225 | 0.0 | 3.2 | 0.00 | 0.00 | 1.45 | 99 | 1014.2 |
| 20260506220343 | 14 | 315 | 1.6 | 3.2 | 0.00 | 0.00 | 1.32 | 99 | 1014.5 |
| 20260506215738 | 14 | 0 | 3.2 | 3.2 | 0.00 | 0.00 | 1.32 | 99 | 1014.2 |
| 20260506215141 | 14 | 338 | 0.0 | 1.6 | 0.00 | 0.00 | 1.32 | 99 | 1014.5 |
| 20260506214549 | 14 | 45 | 3.2 | 3.2 | 0.00 | 0.00 | 1.32 | 99 | 1014.5 |
| 20260506213317 | 14 | 23 | 3.2 | 3.2 | 0.00 | 0.00 | 1.32 | 99 | 1014.2 |
| 20260506212713 | 14 | 203 | 3.2 | 3.2 | 0.00 | 0.00 | 1.32 | 99 | 1014.2 |
| 20260506212127 | 14 | 0 | 1.6 | 3.2 | 0.00 | 0.00 | 1.32 | 99 | 1014.5 |
| 20260506210929 | 14 | 45 | 0.0 | 3.2 | 0.00 | 0.00 | 1.30 | 99 | 1014.5 |
| 20260506210347 | 13 | 45 | 3.2 | 3.2 | 0.00 | 0.00 | 1.30 | 99 | 1014.5 |
| 20260506204531 | 13 | 23 | 3.2 | 4.8 | 0.00 | 0.00 | 1.30 | 99 | 1014.2 |
| 20260506203311 | 13 | 23 | 8.0 | 8.0 | 0.00 | 0.00 | 1.30 | 99 | 1014.2 |
| 20260506202713 | 13 | 45 | 6.4 | 6.4 | 0.00 | 0.00 | 1.30 | 99 | 1014.2 |
| 20260506201533 | 13 | 0 | 4.8 | 4.8 | 0.00 | 0.00 | 1.27 | 99 | 1014.5 |
| 20260506200314 | 13 | 23 | 6.4 | 8.0 | 0.00 | 0.00 | 1.27 | 99 | 1014.2 |
| 20260506195752 | 13 | 0 | 6.4 | 6.4 | 0.00 | 0.00 | 1.27 | 99 | 1014.2 |
| 20260506194536 | 13 | 23 | 4.8 | 6.4 | 0.00 | 0.00 | 1.27 | 99 | 1014.2 |
| 20260506193953 | 13 | 23 | 1.6 | 3.2 | 0.00 | 0.00 | 1.27 | 99 | 1014.2 |
| 20260506193353 | 13 | 0 | 4.8 | 4.8 | 0.00 | 0.00 | 1.24 | 99 | 1013.8 |
| 20260506192743 | 13 | 338 | 3.2 | 3.2 | 0.00 | 0.00 | 1.24 | 99 | 1013.8 |
| 20260506192132 | 13 | 23 | 3.2 | 8.0 | 0.00 | 0.00 | 1.24 | 99 | 1013.5 |
| 20260506191543 | 13 | 0 | 4.8 | 8.0 | 0.00 | 0.00 | 1.24 | 99 | 1013.8 |
| 20260506190913 | 13 | 315 | 9.7 | 9.7 | 0.00 | 0.00 | 1.24 | 99 | 1013.5 |
| 20260506190340 | 13 | 248 | 3.2 | 9.7 | 0.00 | 0.00 | 1.24 | 99 | 1013.5 |
| 20260506185719 | 13 | 293 | 3.2 | 3.2 | 0.00 | 0.00 | 1.24 | 99 | 1013.8 |
| 20260506184536 | 14 | 23 | 6.4 | 8.0 | 0.00 | 0.00 | 1.24 | 99 | 1013.5 |
| 20260506183920 | 14 | 23 | 4.8 | 8.0 | 0.00 | 0.00 | 1.24 | 99 | 1013.5 |
| 20260506183330 | 14 | 23 | 8.0 | 8.0 | 0.00 | 0.00 | 1.24 | 99 | 1013.5 |
| 20260506182740 | 14 | 23 | 4.8 | 6.4 | 0.00 | 0.00 | 1.24 | 99 | 1013.5 |
| 20260506181541 | 14 | 23 | 6.4 | 8.0 | 0.00 | 0.00 | 1.24 | 99 | 1013.5 |
| 20260506180936 | 14 | 0 | 6.4 | 9.7 | 0.00 | 0.00 | 1.22 | 99 | 1013.5 |
| 20260506180354 | 15 | 315 | 3.2 | 6.4 | 0.00 | 0.00 | 1.22 | 99 | 1013.5 |
| 20260506175748 | 15 | 315 | 6.4 | 8.0 | 0.00 | 0.00 | 1.19 | 99 | 1013.2 |
| 20260506175127 | 15 | 203 | 3.2 | 3.2 | 0.00 | 0.00 | 1.19 | 99 | 1013.2 |
| 20260506174531 | 15 | 23 | 3.2 | 4.8 | 0.00 | 0.00 | 1.17 | 99 | 1013.2 |
| 20260506173943 | 15 | 0 | 3.2 | 11.3 | 0.00 | 0.00 | 1.17 | 99 | 1013.2 |
| 20260506173318 | 15 | 23 | 9.7 | 9.7 | 0.00 | 0.00 | 1.17 | 99 | 1013.2 |
| 20260506172712 | 15 | 45 | 4.8 | 4.8 | 0.00 | 0.00 | 1.17 | 99 | 1013.2 |
| 20260506172141 | 15 | 0 | 3.2 | 8.0 | 0.00 | 0.00 | 1.17 | 99 | 1013.2 |
| 20260506170953 | 15 | 338 | 4.8 | 11.3 | 0.00 | 0.00 | 1.17 | 99 | 1012.8 |
| 20260506170310 | 15 | 23 | 16.1 | 16.1 | 0.00 | 0.00 | 1.17 | 99 | 1012.8 |
| 20260506163946 | 17 | 45 | 8.0 | 8.0 | 0.00 | 0.00 | 1.12 | 99 | 1012.5 |
| 20260506163334 | 17 | 45 | 4.8 | 9.7 | 0.00 | 0.00 | 1.09 | 99 | 1012.5 |
| 20260506162749 | 17 | 45 | 6.4 | 6.4 | 0.00 | 0.00 | 1.07 | 99 | 1012.1 |
| 20260506162115 | 17 | 0 | 9.7 | 14.5 | 0.00 | 0.00 | 1.07 | 99 | 1012.1 |
| 20260506161546 | 17 | 23 | 9.7 | 11.3 | 0.00 | 0.00 | 1.04 | 99 | 1012.1 |
| 20260506160934 | 17 | 45 | 3.2 | 9.7 | 0.00 | 0.00 | 1.04 | 99 | 1012.1 |
| 20260506160351 | 17 | 0 | 8.0 | 9.7 | 0.00 | 0.00 | 1.02 | 99 | 1012.1 |
| 20260506155711 | 17 | 0 | 3.2 | 3.2 | 0.00 | 0.00 | 0.97 | 99 | 1012.1 |
| 20260506155128 | 17 | 23 | 6.4 | 6.4 | 0.00 | 0.00 | 0.97 | 99 | 1012.1 |
| 20260506154542 | 17 | 23 | 3.2 | 6.4 | 0.00 | 0.00 | 0.94 | 99 | 1012.1 |
| 20260506153930 | 17 | 23 | 4.8 | 4.8 | 0.00 | 0.00 | 0.94 | 99 | 1012.1 |
| 20260506153334 | 17 | 45 | 4.8 | 8.0 | 0.00 | 0.00 | 0.91 | 99 | 1012.1 |
| 20260506152733 | 18 | 23 | 4.8 | 4.8 | 0.00 | 0.00 | 0.91 | 99 | 1012.1 |
| 20260506151533 | 18 | 45 | 4.8 | 4.8 | 0.00 | 0.00 | 0.91 | 99 | 1011.8 |
| 20260506150933 | 18 | 45 | 6.4 | 6.4 | 0.00 | 0.00 | 0.91 | 99 | 1011.8 |
| 20260506150311 | 18 | 45 | 3.2 | 4.8 | 0.00 | 0.00 | 0.91 | 99 | 1011.8 |
| 20260506145750 | 18 | 45 | 3.2 | 4.8 | 0.00 | 0.00 | 0.91 | 99 | 1011.5 |
| 20260506145133 | 18 | 45 | 3.2 | 4.8 | 0.00 | 0.00 | 0.91 | 99 | 1011.8 |
| 20260506144538 | 18 | 23 | 3.2 | 4.8 | 0.00 | 0.00 | 0.91 | 99 | 1011.5 |
| 20260506143929 | 18 | 45 | 6.4 | 6.4 | 0.00 | 0.00 | 0.91 | 99 | 1011.5 |
| 20260506143317 | 18 | 68 | 6.4 | 9.7 | 0.00 | 0.00 | 0.91 | 99 | 1011.5 |
| 20260506142716 | 18 | 0 | 4.8 | 4.8 | 0.00 | 0.00 | 0.91 | 99 | 1011.5 |
| 20260506142117 | 18 | 23 | 4.8 | 4.8 | 0.00 | 0.00 | 0.91 | 99 | 1011.5 |
| 20260506141523 | 18 | 270 | 4.8 | 9.7 | 0.00 | 0.00 | 0.91 | 99 | 1011.5 |
| 20260506140935 | 18 | 113 | 6.4 | 9.7 | 0.00 | 0.00 | 0.91 | 99 | 1011.5 |